This demonstration page uses our WeatherBlox Daily Observations layout. Learn more.

Left ArrowRight Arrow

Hourly Observations for February 13, 2022

Temp ( °F °C ) Dew Point ( °F °C ) Humidity (%) Winds ( mph kmh ) Pressure ( in mb ) Visibility ( mi km ) Precip ( " mm )
12:53 am 00:53 Clear 47 8.3 37 2.8 69 69 Calm 30.22 1023 10 16 0.00 0.00
1:53 am 01:53 Clear 45 7.2 36 2.2 71 71 N 3 6 30.22 1023 10 16 0.00 0.00
2:53 am 02:53 Clear 43 6.1 35 1.7 74 74 Calm 30.22 1023 10 16 0.00 0.00
3:53 am 03:53 Clear 42 5.6 35 1.7 76 76 Calm 30.22 1023 10 16 0.00 0.00
4:53 am 04:53 Clear 41 5 35 1.7 79 79 Calm 30.22 1024 10 16 0.00 0.00
5:53 am 05:53 Clear 39 3.9 33 0.6 79 79 Calm 30.24 1024 10 16 0.00 0.00
6:53 am 06:53 Clear 39 3.9 33 0.6 79 79 Calm 30.25 1025 10 16 0.00 0.00
7:53 am 07:53 Sunny 43 6.1 34 1.1 71 71 Calm 30.27 1025 10 16 0.00 0.00
8:53 am 08:53 Sunny 51 10.6 41 5 69 69 Calm 30.27 1025 10 16 0.00 0.00
9:53 am 09:53 Sunny 60 15.6 38 3.3 44 44 NNE 3 6 30.27 1025 10 16 0.00 0.00
10:53 am 10:53 Sunny 66 18.9 38 3.3 36 36 NNE 3 6 30.27 1025 10 16 0.00 0.00
11:53 am 11:53 Sunny 70 21.1 39 3.9 32 32 NE 3 6 30.24 1024 10 16 0.00 0.00
12:53 pm 12:53 Sunny 73 22.8 36 2.2 26 26 NE 3 6 30.21 1023 10 16 0.00 0.00
1:53 pm 13:53 Sunny 75 23.9 36 2.2 24 24 Calm 30.18 1022 10 16 0.00 0.00
2:53 pm 14:53 Sunny 75 23.9 37 2.8 25 25 Calm 30.16 1022 10 16 0.00 0.00
3:53 pm 15:53 Sunny 74 23.3 40 4.4 29 29 Calm 30.15 1021 10 16 0.00 0.00
4:53 pm 16:53 Sunny 73 22.8 38 3.3 28 28 S 5 7 30.14 1021 10 16 0.00 0.00
5:53 pm 17:53 Clear 66 18.9 41 5 40 40 SE 3 6 30.14 1021 10 16 0.00 0.00
6:53 pm 18:53 Clear 61 16.1 41 5 48 48 Calm 30.15 1021 10 16 0.00 0.00
7:53 pm 19:53 Clear 58 14.4 42 5.6 56 56 Calm 30.15 1021 10 16 0.00 0.00
8:53 pm 20:53 Clear 55 12.8 42 5.6 62 62 NNE 6 9 30.15 1021 10 16 0.00 0.00
9:53 pm 21:53 Clear 52 11.1 40 4.4 64 64 Calm 30.16 1021 10 16 0.00 0.00
10:53 pm 22:53 Clear 50 10 41 5 71 71 NNE 5 7 30.15 1021 10 16 0.00 0.00
11:53 pm 23:53 Clear 49 9.4 40 4.4 71 71 Calm 30.15 1021 10 16 0.00 0.00

Powered by AerisWeather